Regional Weather Roundup
Issued by NWS Midland/Odessa, TX

Home | Current Version | Previous Version | Text Only | Print | Product List | Glossary On
Versions: 1 2 3 4 5 6 7 8 9 10 11 12 13 14 15 16 17 18 19 20 21 22 23 24 25 26 27 28 29 30 31 32 33 34 35 36 37 38 39 40 41 42 43 44 45 46 47 48 49 50
000
ASUS44 KMAF 300210
RWRMAF
MIDLAND AREA WEATHER ROUNDUP
NATIONAL WEATHER SERVICE MIDLAND TX
900 PM CDT FRI JUL 29 2016

...IN SOUTHWEST TEXAS AND SOUTHEAST NEW MEXICO...

CITY           SKY/WX    TMP DP  RH WIND       PRES   REMARKS
ALPINE         CLOUDY    76  55  48 S10       30.16R
ANDREWS        FAIR      87  57  36 SE7       30.01R
ARTESIA        CLEAR     90  55  31 S13G18    30.01R
BIG SPRING     CLEAR     90  59  34 SE7       30.00R
CARLSBAD       CLEAR     89  54  30 SE12      29.97R
DRYDEN           N/A     85  67  54 SE9       29.96R
FORT STOCKTON  CLEAR     84  61  45 SE15      29.99R
GUAD PASS      MOCLDY    80  54  40 SE10      30.16R
HOBBS          CLEAR     86  54  32 SE8       30.04R
MARFA          CLOUDY    69  65  86 NE6       30.14S
MIDLAND AIRPK  CLEAR     90  57  33 SE10      29.99R
MIDLAND INTL   CLEAR     89  58  34 SE13      29.98R
ODESSA         CLEAR     90  57  32 S14       29.99R
PECOS          CLEAR     90  59  35 SE16      29.93S
PRESIDIO       FAIR      82  62  50 E13       29.98R
SEMINOLE       CLEAR     87  55  33 SE6       30.03R
SNYDER           N/A     89  61  38 SE7       29.98R
WINK           CLEAR     90  56  31 SE12      29.94S
$$
...OTHER STATIONS IN TEXAS...

CITY           SKY/WX    TMP DP  RH WIND       PRES   REMARKS
ABILENE        CLEAR     86  69  56 SE7       29.96R
AMARILLO       CLOUDY    82  58  43 SE9       30.05R
AUSTIN         PTCLDY    87  73  62 S9        29.91S
BROWNSVILLE    CLEAR     84  76  76 SE13      29.94R
CORPUS CHRISTI PTCLDY    85  77  77 SE15      29.95R
DALLAS FTW     PTCLDY    88  68  51 S6        29.90R
DEL RIO        CLEAR     89  65  44 SE8       29.91R
EL PASO        MOCLDY    92  48  22 E14       29.97R
HOUSTON INT    PTCLDY    86  73  65 S7        29.95S
LUBBOCK        PTCLDY    88  56  33 S10       30.02R
SAN ANGELO     CLEAR     88  59  37 SE7       29.95R
SAN ANTONIO    MOCLDY    83  67  58 SE10      29.95R
WACO           CLEAR     86  70  58 E5        29.91R
WICHITA FALLS  NOT AVBL
$$
...OTHER LOCATIONS IN NEW MEXICO...

CITY           SKY/WX    TMP DP  RH WIND       PRES   REMARKS
ALAMAGORDO     CLOUDY    86  52  30 N8        30.03R
ALBUQUERQUE    CLOUDY    75  54  47 E14       30.12F
CANNON AFB     CLEAR     81  57  43 S9        30.08R
CLOVIS         CLEAR     82  54  36 S9        30.08R
HOLLOMAN AFB   CLOUDY    85  54  34 NE21      30.01R
ROSWELL        CLEAR     90  51  26 S13       30.01R
RUIDOSO          N/A     75  46  35 SE9G16    30.28R
SANTA FE       CLOUDY    69  49  48 W5        30.19R
TRUTH OR CONSE MOCLDY    81  47  30 NW15G24   30.06S
TUCUMCARI      TSTM      77  56  48 N18G24    30.08R
$$




USA.gov is the U.S. government's official web portal to all federal, state and local government web resources and services.